EW6887 Weather Reports


time (UTC)temp
F
wind
direction
speed
knots
gust
knots
rain 1hr
in
rain 24hr
in
rain mn
in
humidity
%
barometer
mb
20260505090028 67 350 0.0 0.0 0.00 0.00 0.00 42 1006.6
20260505084521 67 355 0.0 0.0 0.00 0.00 0.00 42 1006.8
20260505083013 66 319 0.0 0.0 0.00 0.00 0.00 42 1006.9
20260505081503 66 296 0.0 0.0 0.00 0.00 0.00 42 1007.1
20260505080104 65 348 0.0 0.0 0.00 0.00 0.00 42 1007.3
20260505074551 66 5 0.0 0.0 0.00 0.00 0.00 42 1007.5
20260505073058 65 22 0.0 0.0 0.00 0.00 0.00 42 1007.6
20260505071547 64 348 0.0 0.0 0.00 0.00 0.00 43 1007.6
20260505070042 64 360 0.0 0.0 0.00 0.00 0.00 44 1007.5
20260505064544 64 299 0.0 0.0 0.00 0.00 0.00 44 1007.3
20260505063027 64 342 0.0 0.0 0.00 0.00 0.00 44 1007.3
20260505061519 64 338 0.0 0.0 0.00 0.00 0.00 45 1007.2
20260505060014 62 320 0.0 0.0 0.00 0.00 0.00 45 1007.2
20260505054516 62 360 0.0 0.0 0.00 0.00 0.00 44 1007.2
20260505053100 62 333 0.0 0.0 0.00 0.00 0.00 45 1007.2
20260505051552 62 321 0.0 0.0 0.00 0.00 0.00 45 1007.3
20260505041530 60 305 0.0 0.0 0.00 0.00 0.00 47 1007.7
20260505040021 60 308 0.0 0.0 0.00 0.00 0.00 46 1007.7
20260505034519 58 321 0.0 0.0 0.00 0.00 0.00 50 1007.8
20260505033003 56 304 0.0 0.0 0.00 0.00 0.00 56 1008.0
20260505031558 56 315 0.0 0.0 0.00 0.00 0.00 57 1008.1
20260505030036 56 309 0.0 0.0 0.00 0.00 0.00 59 1008.2
20260505024515 55 305 0.0 0.0 0.00 0.00 0.00 58 1008.3
20260505023059 55 309 0.0 0.0 0.00 0.00 0.00 60 1008.6
20260505021550 56 5 0.0 0.0 0.00 0.00 0.00 59 1008.9
20260505020053 57 5 0.0 0.0 0.00 0.00 0.00 57 1009.1
20260505014537 59 5 0.0 0.0 0.00 0.00 0.00 56 1009.3
20260505013020 59 329 0.0 0.0 0.00 0.00 0.00 53 1009.4
20260505011512 60 11 0.0 0.0 0.00 0.00 0.00 52 1009.5
20260505010005 60 333 0.0 0.0 0.00 0.00 0.00 51 1009.3
20260505004631 61 331 0.0 0.0 0.00 0.00 0.00 50 1009.2
20260505003052 61 331 0.0 0.0 0.00 0.00 0.00 50 1009.3
20260505001545 61 332 0.0 0.0 0.00 0.00 0.00 50 1009.4
20260505000038 62 332 0.0 0.0 0.00 0.00 0.00 50 1009.5
20260504234529 62 309 0.0 0.0 0.00 0.00 0.00 50 1009.7
20260504233022 61 298 0.0 0.0 0.00 0.00 0.00 51 1009.8
20260504231511 61 288 0.0 0.0 0.00 0.00 0.00 52 1009.8
20260504230005 61 266 0.0 0.0 0.00 0.00 0.00 54 1009.9
20260504224611 61 265 0.0 0.0 0.00 0.00 0.00 56 1010.1
20260504223050 61 254 0.0 0.0 0.00 0.00 0.00 56 1010.2
20260504221629 60 250 0.0 0.0 0.00 0.00 0.00 58 1010.2
20260504220045 60 238 0.0 0.0 0.00 0.00 0.00 61 1010.4
20260504214537 61 238 0.0 0.0 0.00 0.00 0.00 62 1010.5
20260504213036 62 238 0.0 0.0 0.00 0.00 0.00 61 1010.7
20260504211517 62 239 0.0 0.0 0.00 0.00 0.00 59 1010.6
20260504210011 63 239 0.0 0.0 0.00 0.00 0.00 60 1010.6
20260504204503 63 239 0.0 0.0 0.00 0.00 0.00 60 1010.7
20260504203052 63 239 0.0 0.0 0.00 0.00 0.00 61 1010.6
20260504201546 63 227 0.0 0.0 0.00 0.00 0.00 61 1010.6
20260504200040 64 224 0.0 0.0 0.00 0.00 0.00 61 1010.6
20260504194531 64 224 0.0 0.0 0.00 0.00 0.00 61 1010.6
20260504193021 65 224 0.0 0.0 0.00 0.00 0.00 60 1010.6
20260504191511 66 211 0.0 0.0 0.00 0.00 0.00 59 1010.6
20260504190001 67 146 0.0 0.0 0.00 0.00 0.00 55 1010.5
20260504184600 69 146 0.0 0.0 0.00 0.00 0.00 53 1010.4
20260504183143 70 146 0.0 0.0 0.00 0.00 0.00 50 1010.2
20260504181533 71 146 0.0 0.0 0.00 0.00 0.00 48 1010.1
20260504180027 72 146 0.0 0.0 0.00 0.00 0.00 46 1010.1
20260504174513 73 99 0.0 0.0 0.00 0.00 0.00 45 1010.0
20260504173012 74 74 0.0 0.0 0.00 0.00 0.00 43 1009.9
20260504171556 74 74 0.0 0.0 0.00 0.00 0.00 42 1009.9